Regional Weather Roundup
Issued by NWS

Home | Current Version | Previous Version | Text Only | Print | Product List | Glossary On
Versions: 1 2 3 4 5 6 7 8 9 10 11 12 13 14 15 16 17 18 19 20 21 22 23 24 25 26 27 28 29 30 31 32 33 34 35 36 37 38 39 40 41 42 43 44 45 46 47 48 49 50
000
ASUS45 KSLC 230010
RWRUT

UTAH REGIONAL WEATHER ROUNDUP
NATIONAL WEATHER SERVICE SALT LAKE CITY UT
600 PM MDT FRI MAY 22 2015

UTZ001>011-023>025-230100-

NORTHERN UTAH

CITY           SKY/WX    TMP DP  RH WIND       PRES   REMARKS
BRIGHAM CITY   CLOUDY    64  40  41 SW3       29.88R
HILL AFB       CLOUDY    61  43  50 SE8       29.88S
LOGAN          LGT RAIN  55  46  71 E10       29.88F
OGDEN          CLOUDY    62  42  47 S7        29.87S
PROVO AIRPORT  PTSUNNY   61  39  44 W7        29.88S
SALT LAKE CITY CLOUDY    62  39  42 SE3       29.86F
VERNAL         LGT RAIN  51  41  68 W14G26    29.95R
WENDOVER       PTSUNNY   66  45  45 S15       29.86S
HEBER CITY     CLOUDY    52  41  66 CALM      29.92F
WEST JORDAN    MOSUNNY   59  43  55 NE7       29.89S

$$

UTZ012>022-026-027-230100-

SOUTHERN/CENTRAL UTAH

CITY           SKY/WX    TMP DP  RH WIND       PRES   REMARKS
BLANDING       PTSUNNY   62  26  25 SE15G23   29.95S
BRYCE CANYON   LGT RAIN  40  32  73 S9G29     30.01R WCI  34
CEDAR CITY     LGT RAIN  45  40  82 SW17G25   29.93F
DELTA          CLOUDY    53  45  72 E15G22    29.91F
HANKSVILLE     MOSUNNY   70  19  14 S6G17     29.79S
MILFORD        TSTM      48  43  82 SW22G32   29.94R
MOAB/CYNLANDS  SUNNY     74  15  10 VRB7      29.77F
PRICE          CLOUDY    58  34  40 NW10      29.91S
ST GEORGE      CLOUDY    61  37  41 SE12      29.93S

$$

REGIONAL REPORTS     COLORADO/ARIZONA

CITY           SKY/WX    TMP DP  RH WIND       PRES   REMARKS
CRAIG, CO      PTSUNNY   54  42  64 E3        29.98F
GRAND JUNCTION PTSUNNY   66  36  32 NW6       29.84F
RIFLE          PTSUNNY   62  37  39 CALM      29.90F
MONTROSE       CLOUDY    65  32  29 S15G24    29.92R
CORTEZ         MOSUNNY   53  45  74 NE8       29.95F
PAGE, AZ       PTSUNNY   62  34  35 SW13G21   29.89R
GRAND CANYON   NOT AVBL
KINGMAN        LGT RAIN  57  45  64 S10       29.92R
FLAGSTAFF      PTSUNNY   51  31  46 S18G26    29.98S

$$

REGIONAL REPORTS    NEVADA/IDAHO/WYOMING

CITY           SKY/WX    TMP DP  RH WIND       PRES   REMARKS
LAS VEGAS, NV  PTSUNNY   71  39  31 S21G35    29.80R
ELY            LGT RAIN  48  39  71 NE9       29.95R
ELKO           CLOUDY    54  45  71 SE14      29.92R
POCATELLO, ID  PTSUNNY   65  45  48 SW8       29.87R
BURLEY         CLOUDY    57  48  72 SW3       29.85F
EVANSTON, WY   LGT RAIN  44  41  89 E5        29.98S
ROCK SPRINGS   CLOUDY    50  40  68 N7        29.94F
KEMMERER       RAIN      43  37  81 CALM      29.99F

$$


USA.gov is the U.S. government's official web portal to all federal, state and local government web resources and services.